Thurmont, MD

7:54 PM EDT on August 20, 2017 (GMT -0400)
Thurmont

Weather History for KRSP - June, 2014

Change the Weather History Date:

Tuesday, June 17, 2014

  Actual Average (KHGR) Record (KHGR)
Temperature  
Mean Temperature 76 °F -  
Max Temperature 84 °F 79 °F 91 °F (2014)
Min Temperature 68 °F 59 °F 53 °F (1999)
Cooling Degree Days 11    
Growing Degree Days 26 (Base 50)    
Moisture  
Dew Point 66 °F    
Average Humidity 70    
Maximum Humidity 84    
Minimum Humidity 55    
Precipitation  
Precipitation 0.00 in - - ()
Sea Level Pressure  
Sea Level Pressure 30.09 in    
Wind  
Wind Speed 8 mph (WNW)    
Max Wind Speed 13 mph    
Max Gust Speed 22 mph    
Visibility 9 miles    
Events      
Averages and records for this station are not official NWS values.
T = Trace of Precipitation, MM = Missing Value Source: NWS Daily Summary

Daily Weather History Graph

Daily Weather History Graph

Search for Another Location

Airport or City:

Trip Planner

Search our weather history database for the weather conditions in past years. The results will help you decide how hot, cold, wet, or windy it might be!

Date:

Astronomy

Jun. 17, 2014 Rise Set
Actual Time 5:41 AM EDT 8:40 PM EDT
Civil Twilight 5:09 AM EDT 9:12 PM EDT
Nautical Twilight 4:27 AM EDT 9:53 PM EDT
Astronomical Twilight 3:39 AM EDT 10:41 PM EDT
Moon No Moon Rise 10:52 AM EDT (6/17)
Length of Visible Light 16h 03m
Length of Day
14h 58m
Waning Gibbous, 73% of the Moon is Illuminated
Jun 17
Waning Gibbous
Jun 19
Last Quarter
Jun 27
New
Jul 5
First Quarter
Jul 12
Full

Hourly Weather History & Observations

Time (EDT) Temp. Heat Index Dew Point Humidity Pressure Visibility Wind Dir Wind Speed Gust Speed Precip Events Conditions
12:54 AM 70.0 °F - 62.1 °F 76% 30.11 in 10.0 mi WNW 9.2 mph - N/A   Clear
1:54 AM 70.0 °F - 63.0 °F 78% 30.11 in 10.0 mi WNW 9.2 mph - N/A   Clear
2:54 AM 70.0 °F - 63.0 °F 78% 30.11 in 10.0 mi WNW 9.2 mph - N/A   Clear
3:54 AM 70.0 °F - 63.0 °F 78% 30.09 in 10.0 mi NW 9.2 mph 16.1 mph N/A   Clear
4:54 AM 68.0 °F - 63.0 °F 84% 30.08 in 10.0 mi WNW 8.1 mph 16.1 mph N/A   Clear
5:54 AM 69.1 °F - 63.0 °F 81% 30.11 in 10.0 mi WNW 8.1 mph - N/A   Clear
6:54 AM 69.1 °F - 64.0 °F 84% 30.14 in 8.0 mi Variable 6.9 mph - N/A   Clear
7:54 AM 73.0 °F - 64.9 °F 76% 30.15 in 9.0 mi WNW 5.8 mph - N/A   Clear
8:54 AM 73.0 °F - 64.9 °F 76% 30.17 in 9.0 mi Variable 3.5 mph - N/A   Clear
9:54 AM 75.9 °F - 66.0 °F 71% 30.16 in 9.0 mi Variable 6.9 mph - N/A   Clear
10:54 AM 78.1 °F - 66.9 °F 68% 30.14 in 10.0 mi Variable 3.5 mph - N/A   Clear
11:54 AM 80.1 °F 82.1 °F 66.0 °F 62% 30.14 in 10.0 mi Variable 6.9 mph - N/A   Clear
12:54 PM 80.1 °F 82.3 °F 66.9 °F 64% 30.14 in 10.0 mi WNW 6.9 mph - N/A   Scattered Clouds
1:54 PM 82.0 °F 84.5 °F 66.9 °F 60% 30.12 in 9.0 mi Variable 4.6 mph - N/A   Partly Cloudy
2:54 PM 82.0 °F 84.1 °F 66.0 °F 58% 30.09 in 9.0 mi Variable 5.8 mph - N/A   Mostly Cloudy
3:54 PM 82.9 °F 85.0 °F 66.0 °F 56% 30.07 in 8.0 mi WSW 6.9 mph - N/A   Scattered Clouds
4:54 PM 84.0 °F 86.3 °F 66.0 °F 55% 30.06 in 9.0 mi Variable 5.8 mph - N/A   Partly Cloudy
5:54 PM 82.9 °F 87.0 °F 70.0 °F 65% 30.05 in 8.0 mi Variable 4.6 mph - N/A   Clear
6:54 PM 81.0 °F 83.8 °F 68.0 °F 65% 30.04 in 10.0 mi Variable 6.9 mph - N/A   Clear
7:54 PM 80.1 °F 82.7 °F 68.0 °F 67% 30.02 in 9.0 mi Variable 6.9 mph - N/A   Clear
8:54 PM 79.0 °F - 66.9 °F 66% 30.04 in 10.0 mi Variable 6.9 mph 21.9 mph N/A   Clear
9:54 PM 78.1 °F - 66.9 °F 68% 30.02 in 10.0 mi WSW 12.7 mph 20.7 mph N/A   Clear
10:54 PM 75.9 °F - 68.0 °F 76% 30.01 in 9.0 mi West 9.2 mph 18.4 mph N/A   Clear
11:54 PM 75.0 °F - 66.9 °F 76% 30.01 in 10.0 mi WNW 11.5 mph 19.6 mph N/A   Clear